Location: Woodhurst
(52.3667°N, 0.0667°W)
Time: 14:54:20
(UTC+00:00)

Cosmos 1400 Rocket - Pass Details

Date: 19 May 2025
Orbit: 484 x 519 km, 81.1° (Epoch: 18 June)

Event Time Altitude Azimuth Distance (km) Brightness Sun altitude
Rises 21:05:55 0° 203° (SSW) 2,558 6.0 -8.7°
Reaches altitude 10° 21:08:03 10° 208° (SSW) 1,677 5.1 -8.9°
Maximum altitude 21:11:39 53° 286° (WNW) 604 3.4 -9.3°
Drops below altitude 10° 21:15:16 10° 5° (N) 1,682 6.0 -9.6°
Sets 21:17:25 0° 10° (N) 2,567 6.9 -9.8°
